          21 12  04 03.58  +55 29.7   2.051  2.699    36.3 / 257  13.9   31  .87

          22 12  03 59.42  +55 21.4   2.068  2.701    35.3 / 256  13.9   35  .92

          23 12  03 55.42  +55 12.7   2.086  2.703    34.4 / 255  13.9   42  .96

          24 12  03 51.55  +55 03.6   2.104  2.704    33.4 / 254  13.9   51  .99

          25 12  03 47.83  +54 54.2   2.123  2.706    32.4 / 253  14.0   61 1.00

          26 12  03 44.25  +54 44.5   2.142  2.708    31.4 / 252  14.0   72  .99

          27 12  03 40.82  +54 34.6   2.161  2.710    30.5 / 251  14.0   82  .96

          28 12  03 37.51  +54 24.5   2.180  2.712    29.6 / 250  14.0   93  .91

          29 12  03 34.34  +54 14.3   2.200  2.715    28.6 / 249  14.0  104  .85

          30 12  03 31.30  +54 03.9   2.220  2.717    27.7 / 248  14.1  115  .78

          31 12  03 28.39  +53 53.5   2.240  2.719    26.8 / 247  14.1  126  .69

     Feb.  1 12  03 25.60  +53 43.1   2.260  2.721    26.0 / 247  14.1  136  .59

NAKANO

         **** Don't distribute anyone except personal use only ****

                (C) Copyright 2005 OAA/ComputingSection

write mail from CFAD0::NAKANO on 2005-01-03 03:34:37(JST).

 

    C/2004 U1 (LINEAR)                                                    

T 2004 Dec. 8.78640 TT                                  Nakano

q   2.6595302            (2000.0)            P               Q

                   Peri.   20.13854     -0.15298758     +0.69659706

                   Node   112.54858     +0.77046612     -0.36011031

e   1.0            Incl.  130.62543     +0.61885116     +0.62054258

From 107 observations 2004 Oct. 16-Dec. 4.



NAKANO

         **** Don't distribute anyone except personal use only ****

                (C) Copyright 2004 OAA/ComputingSection

write mail from CFAD0::NAKANO on 2004-12-09 01:41:38(JST).

 



◎C/2004 U1の軌道と予報位置です



  上尾の門田健一氏の12月2日の観測によれば,この彗星は,予報光度より

4等級ほど明るく,CCD 光度で13等級(H10=8.0等)まで,増光しています.

これは,それまでの観測光度,たとえば,11月22日の門田氏の CCD全光度

17.3等(H10=11.5等)にくらべて,H10で 3.5等級ほど増光したことにな

ります.下の光度予報は,門田氏の観測から,推定した今後の予報光度です.



    C/2004 U1 (LINEAR)                                                    

T 2004 Dec. 8.78179 TT                                  Nakano

q   2.6595392            (2000.0)            P               Q

                   Peri.   20.13699     -0.15300686     +0.69658865

                   Node   112.54852     +0.77047483     -0.36009338

e   1.0            Incl.  130.62507     +0.61883555     +0.62056185

From 70 observations 2004 Oct. 16-Dec. 2.

 

Date/        TT  R.A.(2000) Decl.     Delta   r     Daily motion  Mag.  Moon Age

              h    h  m       。  ,                      ,  / PA 。  m1      。

2004 Dec.  1 18  08 14.14  +39 14.1   1.916  2.661    47.5 / 321  13.7   15  .80

           2 18  08 11.53  +39 50.8   1.903  2.660    48.4 / 320  13.6   24  .71

           3 18  08 08.81  +40 27.8   1.890  2.660    49.3 / 319  13.6   35  .62

           4 18  08 05.96  +41 05.0   1.877  2.660    50.1 / 318  13.6   46  .53

           5 18  08 02.99  +41 42.4   1.865  2.660    51.0 / 318  13.6   59  .43

           6 18  07 59.89  +42 19.9   1.854  2.660    51.8 / 317  13.6   72  .33

           7 18  07 56.65  +42 57.4   1.843  2.660    52.5 / 316  13.6   85  .23

           8 18  07 53.28  +43 34.8   1.833  2.660    53.3 / 315  13.6   99  .15

           9 18  07 49.77  +44 12.2   1.824  2.660    54.0 / 314  13.6  113  .08

          10 18  07 46.12  +44 49.5   1.815  2.660    54.6 / 313  13.5  128  .03

          11 18  07 42.32  +45 26.5   1.807  2.660    55.2 / 312  13.5  142  .00

          12 18  07 38.38  +46 03.1   1.799  2.660    55.8 / 311  13.5  154  .01

          13 18  07 34.29  +46 39.4   1.793  2.660    56.3 / 310  13.5  160  .04

          14 18  07 30.04  +47 15.2   1.786  2.660    56.7 / 309  13.5  156  .11

          15 18  07 25.65  +47 50.5   1.781  2.661    57.1 / 308  13.5  145  .19

          16 18  07 21.11  +48 25.1   1.776  2.661    57.5 / 307  13.5  131  .29

          17 18  07 16.42  +48 59.0   1.772  2.661    57.8 / 305  13.5  118  .40

          18 18  07 11.59  +49 32.1   1.769  2.662    58.0 / 304  13.5  105  .51

          19 18  07 06.61  +50 04.3   1.766  2.662    58.1 / 303  13.5   92  .61

          20 18  07 01.49  +50 35.5   1.765  2.663    58.2 / 302  13.5   79  .71

          21 18  06 56.23  +51 05.7   1.763  2.663    58.2 / 300  13.5   67  .79

          22 18  06 50.84  +51 34.7   1.763  2.664    58.2 / 299  13.5   55  .87

          23 18  06 45.33  +52 02.6   1.763  2.664    58.1 / 298  13.5   44  .93

          24 18  06 39.70  +52 29.1   1.764  2.665    57.9 / 296  13.5   35  .97

          25 18  06 33.96  +52 54.3   1.766  2.666    57.7 / 295  13.5   28  .99

          26 18  06 28.12  +53 18.2   1.769  2.666    57.4 / 294  13.5   25 1.00

          27 18  06 22.20  +53 40.6   1.772  2.667    57.1 / 292  13.5   29  .99

          28 18  06 16.20  +54 01.5   1.776  2.668    56.7 / 291  13.5   36  .96

          29 18  06 10.13  +54 20.8   1.781  2.669    56.2 / 289  13.5   46  .91

          30 18  06 04.01  +54 38.7   1.786  2.670    55.7 / 288  13.5   57  .85

          31 18  05 57.86  +54 55.0   1.792  2.671    55.1 / 286  13.5   68  .78

2005 Jan.  1 18  05 51.68  +55 09.7   1.799  2.672    54.5 / 285  13.5   80  .69

NAKANO

         **** Don't distribute anyone except personal use only ****

                (C) Copyright 2004 OAA/ComputingSection

write mail from CFAD0::NAKANO on 2004-12-03 05:11:58(JST).

 

    C/2004 U1 (LINEAR)                                                    

T 2004 Dec. 8.36704 TT                                  Nakano

q   2.6614323            (2000.0)            P               Q

                   Peri.   19.99015     -0.15501129     +0.69580229

                   Node   112.55301     +0.77127534     -0.35836628

e   1.0            Incl.  130.59044     +0.61733771     +0.62244098

From 45 observations 2004 Oct. 16-24.



NAKANO

         **** Don't distribute anyone except personal use only ****

                (C) Copyright 2004 OAA/ComputingSection

write mail from CFAD0::NAKANO on 2004-11-03 02:43:59(JST).

 

◎C/2004 U1の軌道と予報位置です



 那賀川の堀寿夫氏と前野拓氏から,10月21日の観測が報告されました.彼らの

CCD全光度は17.7等でした.



    C/2004 U1 (LINEAR)                                                    

T 2004 Dec. 7.45599 TT                                  Nakano

q   2.6658516            (2000.0)            P               Q

                   Peri.   19.66657     -0.15944094     +0.69412505

                   Node   112.56586     +0.77303771     -0.35446748

e   1.0            Incl.  130.52039     +0.61399616     +0.62653270

From 23 observations 2004 Oct. 16-21.

 

Date/        TT  R.A.(2000) Decl.     Delta   r     Daily motion  Mag.  Moon Age

              h    h  m       。  ,                      ,  / PA 。  m1      。

2004 Oct. 20 18  08 56.14  +20 51.7   2.756  2.713    16.5 / 356  17.5  165  .48

          21 18  08 56.05  +21 08.1   2.734  2.711    16.9 / 355  17.5  178  .59

          22 18  08 55.95  +21 25.0   2.712  2.709    17.3 / 354  17.5  167  .70

          23 18  08 55.81  +21 42.2   2.690  2.707    17.7 / 353  17.5  153  .80

          24 18  08 55.65  +21 59.8   2.668  2.705    18.2 / 352  17.5  139  .88

          25 18  08 55.46  +22 17.7   2.646  2.703    18.6 / 351  17.4  126  .94

          26 18  08 55.24  +22 36.1   2.623  2.702    19.1 / 350  17.4  113  .98

          27 18  08 54.99  +22 54.9   2.601  2.700    19.6 / 349  17.4  100 1.00

          28 18  08 54.70  +23 14.2   2.579  2.698    20.2 / 348  17.4   87 1.00

          29 18  08 54.39  +23 33.9   2.557  2.697    20.7 / 347  17.3   74  .97

          30 18  08 54.04  +23 54.0   2.535  2.695    21.2 / 346  17.3   62  .93

          31 18  08 53.65  +24 14.6   2.513  2.694    21.8 / 345  17.3   49  .88

     Nov.  1 18  08 53.23  +24 35.6   2.491  2.692    22.4 / 344  17.3   37  .81

           2 18  08 52.77  +24 57.1   2.469  2.691    23.0 / 343  17.3   25  .73

           3 18  08 52.28  +25 19.2   2.447  2.689    23.7 / 342  17.2   13  .64

           4 18  08 51.74  +25 41.7   2.426  2.688    24.3 / 341  17.2    3  .55

           5 18  08 51.15  +26 04.7   2.404  2.687    25.0 / 340  17.2   11  .45

           6 18  08 50.53  +26 28.2   2.382  2.685    25.7 / 340  17.2   24  .36

           7 18  08 49.86  +26 52.3   2.361  2.684    26.4 / 339  17.2   37  .26

           8 18  08 49.14  +27 16.9   2.340  2.683    27.1 / 338  17.1   50  .18

           9 18  08 48.37  +27 42.0   2.319  2.682    27.9 / 337  17.1   63  .10

          10 18  08 47.55  +28 07.7   2.298  2.681    28.6 / 336  17.1   77  .05

          11 18  08 46.68  +28 33.9   2.277  2.680    29.4 / 336  17.1   92  .01

          12 18  08 45.75  +29 00.6   2.256  2.679    30.2 / 335  17.0  107  .00

          13 18  08 44.76  +29 28.0   2.236  2.678    31.0 / 334  17.0  122  .02

          14 18  08 43.72  +29 55.9   2.216  2.677    31.9 / 333  17.0  137  .07

          15 18  08 42.61  +30 24.3   2.196  2.676    32.7 / 333  17.0  151  .14

          16 18  08 41.44  +30 53.4   2.176  2.675    33.6 / 332  17.0  165  .23

          17 18  08 40.20  +31 23.0   2.157  2.674    34.5 / 331  16.9  172  .33

          18 18  08 38.89  +31 53.1   2.138  2.673    35.4 / 330  16.9  162  .44

          19 18  08 37.51  +32 23.8   2.119  2.672    36.3 / 330  16.9  148  .56

          20 18  08 36.06  +32 55.1   2.101  2.672    37.2 / 329  16.9  135  .66

NAKANO

         **** Don't distribute anyone except personal use only ****

                (C) Copyright 2004 OAA/ComputingSection

write mail from CFAD0::NAKANO on 2004-10-22 06:25:09(JST).





戻ります。